Location: Observatory
(52.1446°N, 0.4624°W)
Time: 16:52:47
(UTC+01:00)

ISS - Pass Details

Date: 28 May 2020
Orbit: 417 x 420 km, 51.6° (Epoch: 26 May)

Event Time Altitude Azimuth Distance (km) Brightness Sun altitude
Rises 22:07:14 0° 282° (WNW) 2,368 1.0 -7.2°
Reaches altitude 10° 22:09:24 10° 275° (W) 1,502 -0.3 -7.4°
Maximum altitude 22:12:34 39° 205° (SSW) 641 -3.0 -7.8°
Enters shadow 22:15:35 11° 135° (SE) 1,438 -1.7 -8.0°
